When you browse on this site, cookies collect data to enhance your experience and personalize the content and advertising you see.
Visit our Privacy Policy to learn more. By continuing to use the site, you agree to this use of cookies and data.

Hourly Weather Santarem

Today, 14 July, Tuesday

Time Temperature Precipitation Wind Pressure Humidity
00:00 +23°C° 0 mm 2 mps 759 mmHg 66%
01:00 +23°C° 0 mm 2 mps 759 mmHg 67%
02:00 +21°C° 0 mm 2 mps 758 mmHg 68%
03:00 +21°C° 0 mm 2 mps 758 mmHg 69%
04:00 +21°C° 0 mm 2 mps 758 mmHg 70%
05:00 +21°C° 0 mm 2 mps 759 mmHg 70%
06:00 +25°C° 0 mm 2 mps 759 mmHg 61%
07:00 +27°C° 0 mm 2 mps 759 mmHg 52%
08:00 +30°C° 0 mm 2 mps 759 mmHg 43%
09:00 +33°C° 0 mm 3 mps 758 mmHg 39%
10:00 +34°C° 0 mm 4 mps 758 mmHg 35%
11:00 +35°C° 0 mm 4 mps 758 mmHg 32%
12:00 +35°C° 0 mm 5 mps 758 mmHg 31%
13:00 +35°C° 0 mm 5 mps 757 mmHg 31%
14:00 +35°C° 0 mm 6 mps 757 mmHg 31%
15:00 +33°C° 0 mm 6 mps 757 mmHg 35%
16:00 +30°C° 0 mm 6 mps 757 mmHg 39%
17:00 +28°C° 0 mm 7 mps 756 mmHg 43%
18:00 +26°C° 0 mm 6 mps 756 mmHg 50%
19:00 +23°C° 0 mm 5 mps 756 mmHg 57%
20:00 +21°C° 0 mm 4 mps 756 mmHg 64%
21:00 +21°C° 0 mm 4 mps 756 mmHg 67%
22:00 +20°C° 0 mm 3 mps 756 mmHg 70%
23:00 +20°C° 0 mm 3 mps 757 mmHg 73%

Tomorrow, 15 July, Wednesday

Time Temperature Precipitation Wind Pressure Humidity
00:00 +19°C° 0 mm 2 mps 756 mmHg 74%
01:00 +19°C° 0 mm 2 mps 756 mmHg 74%
02:00 +19°C° 0 mm 2 mps 756 mmHg 74%
03:00 +20°C° 0 mm 2 mps 756 mmHg 67%
04:00 +21°C° 0 mm 2 mps 756 mmHg 59%
05:00 +21°C° 0 mm 2 mps 756 mmHg 52%
06:00 +25°C° 0 mm 3 mps 757 mmHg 45%
07:00 +28°C° 0 mm 4 mps 757 mmHg 38%
08:00 +32°C° 0 mm 4 mps 757 mmHg 31%
09:00 +34°C° 0 mm 4 mps 757 mmHg 28%
10:00 +36°C° 0 mm 4 mps 757 mmHg 25%
11:00 +39°C° 0 mm 5 mps 757 mmHg 22%
12:00 +40°C° 0 mm 4 mps 757 mmHg 21%
13:00 +41°C° 0 mm 4 mps 757 mmHg 19%
14:00 +42°C° 0 mm 3 mps 757 mmHg 17%
15:00 +40°C° 0 mm 4 mps 756 mmHg 20%
16:00 +38°C° 0 mm 4 mps 756 mmHg 22%
17:00 +37°C° 0 mm 5 mps 756 mmHg 24%
18:00 +34°C° 0 mm 5 mps 756 mmHg 30%
19:00 +30°C° 0 mm 4 mps 757 mmHg 35%
20:00 +27°C° 0 mm 4 mps 757 mmHg 40%
21:00 +27°C° 0 mm 3 mps 757 mmHg 41%
22:00 +26°C° 0 mm 2 mps 757 mmHg 42%
23:00 +25°C° 0 mm 2 mps 757 mmHg 44%

Day after tomorrow, 16 July, Thursday

Time Temperature Precipitation Wind Pressure Humidity
00:00 +25°C° 0 mm 2 mps 757 mmHg 42%
01:00 +25°C° 0 mm 2 mps 757 mmHg 40%
02:00 +25°C° 0 mm 2 mps 757 mmHg 39%
03:00 +25°C° 0 mm 2 mps 757 mmHg 39%
04:00 +25°C° 0 mm 2 mps 757 mmHg 40%
05:00 +25°C° 0 mm 2 mps 757 mmHg 41%
06:00 +28°C° 0 mm 3 mps 757 mmHg 36%
07:00 +30°C° 0 mm 3 mps 758 mmHg 32%
08:00 +34°C° 0 mm 3 mps 758 mmHg 28%
09:00 +37°C° 0 mm 3 mps 758 mmHg 25%
10:00 +39°C° 0 mm 3 mps 758 mmHg 22%
11:00 +41°C° 0 mm 2 mps 758 mmHg 19%
12:00 +42°C° 0 mm 2 mps 757 mmHg 19%
13:00 +42°C° 0 mm 2 mps 757 mmHg 18%
14:00 +43°C° 0 mm 2 mps 757 mmHg 17%
15:00 +42°C° 0 mm 3 mps 756 mmHg 20%
16:00 +40°C° 0 mm 5 mps 756 mmHg 23%
17:00 +38°C° 0 mm 6 mps 756 mmHg 26%
18:00 +35°C° 0 mm 5 mps 756 mmHg 30%
19:00 +32°C° 0 mm 4 mps 756 mmHg 34%
20:00 +28°C° 0 mm 3 mps 757 mmHg 38%
21:00 +28°C° 0 mm 3 mps 757 mmHg 39%
22:00 +27°C° 0 mm 3 mps 757 mmHg 40%
23:00 +27°C° 0 mm 2 mps 757 mmHg 41%

17 July, Friday

Time Temperature Precipitation Wind Pressure Humidity
00:00 +26°C° 0 mm 2 mps 757 mmHg 43%
01:00 +26°C° 0 mm 2 mps 756 mmHg 44%
02:00 +25°C° 0 mm 1 mps 756 mmHg 46%
03:00 +25°C° 0 mm 1 mps 756 mmHg 47%
04:00 +25°C° 0 mm 1 mps 756 mmHg 47%
05:00 +25°C° 0 mm 1 mps 756 mmHg 48%
06:00 +28°C° 0 mm 1 mps 757 mmHg 41%
07:00 +31°C° 0 mm 1 mps 757 mmHg 33%
08:00 +35°C° 0 mm 2 mps 757 mmHg 26%
09:00 +36°C° 0 mm 1 mps 757 mmHg 23%
10:00 +40°C° 0 mm 1 mps 757 mmHg 21%
11:00 +42°C° 0 mm 1 mps 757 mmHg 18%
12:00 +42°C° 0 mm 2 mps 756 mmHg 18%
13:00 +43°C° 0 mm 3 mps 756 mmHg 18%
14:00 +43°C° 0 mm 4 mps 756 mmHg 19%
15:00 +41°C° 0 mm 4 mps 755 mmHg 22%
16:00 +39°C° 0 mm 5 mps 755 mmHg 25%
17:00 +36°C° 0 mm 5 mps 755 mmHg 29%
18:00 +33°C° 0 mm 4 mps 755 mmHg 36%
19:00 +29°C° 0 mm 3 mps 756 mmHg 43%
20:00 +26°C° 0 mm 3 mps 756 mmHg 50%
21:00 +25°C° 0 mm 2 mps 756 mmHg 52%
22:00 +24°C° 0 mm 2 mps 756 mmHg 53%
23:00 +24°C° 0 mm 1 mps 756 mmHg 55%

18 July, Saturday

Time Temperature Precipitation Wind Pressure Humidity
00:00 +23°C° 0 mm 1 mps 756 mmHg 55%
01:00 +23°C° 0 mm 1 mps 756 mmHg 56%
02:00 +23°C° 0 mm 1 mps 755 mmHg 56%
03:00 +23°C° 0 mm 1 mps 756 mmHg 57%
04:00 +23°C° 0 mm 1 mps 756 mmHg 57%
05:00 +23°C° 0 mm 1 mps 756 mmHg 58%
06:00 +26°C° 0 mm 1 mps 756 mmHg 49%
07:00 +29°C° 0 mm 1 mps 756 mmHg 39%
08:00 +32°C° 0 mm 1 mps 756 mmHg 30%
09:00 +34°C° 0 mm 1 mps 756 mmHg 27%
10:00 +37°C° 0 mm 2 mps 756 mmHg 23%
11:00 +39°C° 0 mm 3 mps 756 mmHg 20%
12:00 +40°C° 0 mm 3 mps 756 mmHg 20%
13:00 +41°C° 0 mm 4 mps 756 mmHg 20%
14:00 +41°C° 0 mm 5 mps 755 mmHg 20%
15:00 +39°C° 0 mm 5 mps 755 mmHg 24%
16:00 +36°C° 0 mm 4 mps 755 mmHg 29%
17:00 +34°C° 0 mm 4 mps 755 mmHg 33%
18:00 +30°C° 0 mm 3 mps 756 mmHg 46%
19:00 +26°C° 0 mm 3 mps 756 mmHg 60%
20:00 +23°C° 0 mm 2 mps 757 mmHg 73%
21:00 +21°C° 0 mm 2 mps 757 mmHg 77%
22:00 +21°C° 0 mm 1 mps 757 mmHg 81%
23:00 +20°C° 0 mm 1 mps 757 mmHg 85%

19 July, Sunday

Time Temperature Precipitation Wind Pressure Humidity
00:00 +20°C° 0 mm 1 mps 757 mmHg 87%
01:00 +19°C° 0 mm 1 mps 757 mmHg 88%
02:00 +19°C° 0 mm 1 mps 756 mmHg 90%
03:00 +19°C° 0 mm 1 mps 757 mmHg 91%
04:00 +19°C° 0 mm 1 mps 757 mmHg 92%
05:00 +19°C° 0 mm 1 mps 757 mmHg 93%
06:00 +21°C° 0 mm 1 mps 757 mmHg 81%
07:00 +24°C° 0 mm 1 mps 758 mmHg 68%
08:00 +27°C° 0 mm 2 mps 758 mmHg 56%
09:00 +29°C° 0 mm 2 mps 758 mmHg 48%
10:00 +33°C° 0 mm 3 mps 758 mmHg 39%
11:00 +35°C° 0 mm 3 mps 758 mmHg 30%
12:00 +36°C° 0 mm 3 mps 757 mmHg 30%
13:00 +36°C° 0 mm 4 mps 757 mmHg 29%
14:00 +36°C° 0 mm 4 mps 757 mmHg 29%
15:00 +35°C° 0 mm 4 mps 757 mmHg 35%
16:00 +33°C° 0 mm 4 mps 757 mmHg 41%
17:00 +30°C° 0 mm 4 mps 757 mmHg 47%
18:00 +27°C° 0 mm 3 mps 757 mmHg 60%
19:00 +24°C° 0 mm 3 mps 757 mmHg 73%
20:00 +20°C° 0 mm 2 mps 758 mmHg 85%
21:00 +19°C° 0 mm 2 mps 758 mmHg 88%
22:00 +19°C° 0 mm 1 mps 758 mmHg 91%
23:00 +19°C° 0 mm 1 mps 757 mmHg 94%
Show more